Погода в Чагыле

Погода в Чагыле : погода сейчас, прогноз погоды и архив. Всё, что Вы хотите узнать о погоде в Чагыле!

Хотите узнать прогноз погоды в Чагыле? Тогда Вам сюда: Погода в Чагыле

Поиск расширенной информации на нашем сайте:

Другие новости

Новости СМИ2

Главная страница сайта

Новости сайта

03.07.2017

Напоминаем, что на нашем специализированном сайте Метеоцентр.Азия вы можете получить высокодетализированные автоматические прогнозы погоды по пунктам России, СНГ и мира в авиационном формате (включающие направление и скорость ветра, видимость, явления погоды, количество и форму облачности, нижнюю и верхнюю границу облачности).

Рекомендуем: ЭлектроКотлы и газовые Котлы: комбинированные котлы цена.

Погода в Чагыле - сегодня

Время (UTC), дата Ветер
(°,м/с) 
Видим.   Явления Облачность Т
(°С)
Тd
(°С)
f(%) Тe
(°С)
Pmin
(гПа)
dP
(гПа)
Po
(мм)
O2
(г/м3)
Тmin Tmax R s Состояние
почвы
21 21.11.17 090 (В) 20000 м    ясно 
+9.8 -3.6 39 +10  1009  -0.2  746  291           
00 22.11.17 тихо ()   20000 м    ясно 
+9.2 -2.5 44 +9  1006.9  -2.1  745  291           
03 22.11.17 тихо ()   20000 м    9/0 средняя 
[Ac trans]
+5.5 -3.3 53 +6  1005.6  -1.4  744  294           
06 22.11.17 тихо ()   20000 м    9/9 600 м кучево-дожд. 
[Cb cap]
+10.2 -2.5 41 +10  1005.4  744  289  +5.5         
09 22.11.17 тихо ()   20000 м    9/9 600 м кучево-дожд. 
[Cb cap]
+16.8 -3 26 +17  1004.1  -0.9  743  282           
12 22.11.17 090 (В) 20000 м    9/0 средняя 
[Ac trans]
+19 -6.4 17 +20  1003.3  -0.7  743  280           
15 22.11.17 тихо ()   20000 м    9/0 средняя 
[Ac trans]
+12.3 -6 27 +12  1004.8  1.1  743  287    +19.2       
18 22.11.17 270 (З) 20000 м    3/0 средняя 
[Ac trans]
+11.7 +8.9 83 +11  1006.9  745  286    +19.2       
21 22.11.17 270 (З) 20000 м    4/0 средняя 
[Ac trans]
+11.2 +9.2 87 +11  1007.8  0.9  746  287           
00 23.11.17 270 (З) 20000 м    10/10 600 м кучево-дожд. 
[Cb cap]
+11.8 +10 89 +13  1009.1  1.4  747  287           
03 23.11.17 290 (З) 20000 м    10/10 600 м кучево-дожд. 
[Cb cap]
+8.2 +5.9 85 +7  1010.6  1.3  748  291           
06 23.11.17 340 (С) 20000 м    10/10 600 м кучево-дожд. 
[Cb cap]
+8.8 +5.9 82 +8  1011.1  0.5  748  291  +8.2         
09 23.11.17 270 (З) 20000 м    9/9 600 м кучево-дожд. 
[Cb cap]
+9.2 +6.2 81 +9  1012.1  0.9  749  291           
12 23.11.17 290 (З) 10 км  слаб. ливневой дождь  10/10 600 м кучево-дожд. 
[Cb cap]
+8.6 +6.7 88 +9  1011.3  -0.7  748  291           
15 23.11.17 270 (З) 20000 м    10/10 600 м кучево-дожд. 
[Cb cap]
+8.2 +6.7 90 +8  1013.1  1.7  749  292         
18 23.11.17 тихо ()   20000 м    10/10 600 м кучево-дожд. 
[Cb cap]
+7.9 +6.4 90 +8  1015  1.8  751  293    +9.4     
21 23.11.17 тихо ()   20000 м    10/10 600 м кучево-дожд. 
[Cb cap]
+6.6 +5.2 91 +7  1016.2  1.2  752  295           
00 24.11.17 тихо ()   20000 м    10/10 600 м кучево-дожд. 
[Cb cap]
+5.3 +4.1 92 +5  1018  1.7  753  297           
03 24.11.17 тихо ()   20000 м    8/0 средняя 
[Ac trans]
+5.1 +3.9 92 +5  1018.1  0.1  753  297           
06 24.11.17 тихо ()   20000 м    10/10 600 м кучево-дожд. 
[Cb cap]
+4.4 +3.2 92 +4  1018.9  0.8  754  298  +5.1         
09 24.11.17 020 (С) 20000 м    9/9 600 м кучево-дожд. 
[Cb cap]
+6.2 +3.8 85 +6  1018.9  754  296           
12 24.11.17 020 (С) 20000 м    9/9 1000 м кучево-дожд. 
[Cb cap]
+7.7 +2.7 71 +8  1018.2  -0.6  753  295           
15 24.11.17 340 (С) 20000 м    10/10 600 м кучево-дожд. 
[Cb cap]
+6.6 +2.2 73 +6  1018.9  0.7  754  296    +7.7       
18 24.11.17 050 (СВ) 20000 м    10/10 600 м кучево-дожд. 
[Cb cap]
+5 +0.9 75 +5  1020.1  1.1  754  298    +7.7       
21 24.11.17 050 (СВ) 20000 м    10/10 600 м кучево-дожд. 
[Cb cap]
+4.2 +1.1 80 +4  1020.6  0.4  755  299           
Время (UTC), дата Ветер
(°,м/с) 
Видим.   Явления Облачность Т
(°С)
Тd
(°С)
f(%) Тe
(°С)
Pmin
(гПа)
dP
(гПа)
Po
(мм)
O2
(г/м3)
Тmin Tmax R s Состояние
почвы

Для получения пояснительной информации подведите курсор к названию столбца.

ПОГОДА в Чагыле - архив

Всё, что Вы хотите узнать о погоде в Чагыле - удобно и подробно!

Выберите нужную дату (начиная с 1 января 2015* года) и нажмите кнопку "Найти".
Будут отображены архивные сводки погоды по пункту Чагыл, начиная с указанной даты.


Отображать данные в формате CSV (для использования в таблицах Excel)


Внимание! Наш архив погоды предназначен исключительно для личного некоммерческого использования в познавательных целях. Если Вам необходимы официальные справки о состоянии погоды (для производственных, юридических, коммерческих и т.п. целей), обращайтесь в органы Росгидромета.

*Примечание: данная дата относится к архиву по метеостанциям СССР (Россия, СНГ, Балтия).
Архив по метеостанциям Зарубежной Европы и Азии (кроме Китая) хранится 10 дней, по другим регионам земного шара (Китай, Африка, Америка, Австралия, Океания) - 1 день.

Чагыл - район местоположения метеостанции


Название, широта, долгота, высота метеостанции:
Чагыл 40.8°ш. 55.3°д. 115 м над ур. моря [Туркменистан]

Дополнительная информация

В oтличие oт бoльшинства пoгoдных сайтoв мы публикуем пoдрoбную метеoинфoрмацию в детальнoм прoфессиoнальнoм фoрмате.

Характеристики температуры и влажнoсти вoздуха измеряются на высoте 2 м в тени вдали oт зданий и деревьев.
Скoрoсть ветра измеряется на высoте 10 м (на урoвне рoста челoвека скoрoсть ветра ниже в 1.5-2 раза). Если метеoстанция нахoдится в гoрoде или в лесу, тo скoрoсть ветра занижена на 2-4 м/с пo сравнению с oткрытым местoм. Скoрoсть ветра над акватoриями крупных рек и oзёр, а также на вершинах хoлмoв на 2-5 м/с выше, чем в oбычных услoвиях.
Атмoсфернoе давление в разных тoчках местнoсти мoжет значительнo oтличаться oт давления на метеoстанции, в зависимoсти oт услoвий рельефа (при пoдъёме на 10 м давление пoнижается примернo на 1 мм рт.ст.).